Regional Weather Roundup
Issued by NWS

Home | Current Version | Previous Version | Text Only | Print | Product List | Glossary Off
Versions: 1 2 3 4 5 6 7 8 9 10 11 12 13 14 15 16 17 18 19 20 21 22 23 24 25 26 27 28 29 30 31 32 33 34 35 36 37 38 39 40 41 42 43 44 45 46 47 48 49 50

939
ASUS43 KFSD 211410
RWRSD

WEATHER ROUNDUP FOR SOUTH DAKOTA
NATIONAL WEATHER SERVICE SIOUX FALLS SD
900 AM CDT MON AUG 21 2017

NOTE: "FAIR" INDICATES FEW OR NO CLOUDS BELOW 12,000 FEET WITH NO
SIGNIFICANT WEATHER AND/OR OBSTRUCTIONS TO VISIBILITY.


SDZ001>005-009-010-012>017-211500-
NORTHWEST AND NORTH CENTRAL SOUTH DAKOTA

CITY           SKY/WX    TMP DP  RH WIND       PRES   REMARKS
BUFFALO          N/A     64  51  62 NW16      29.99R
FAITH            N/A     62  61  96 CALM      30.03R
MOBRIDGE       CLOUDY    59  55  87 CALM      29.97F
$$

SDZ012>016-024>037-041>051-057-063-072>074-211500-
SOUTHWEST AND SOUTH CENTRAL SOUTH DAKOTA

CITY           SKY/WX    TMP DP  RH WIND       PRES   REMARKS
RAPID CTY ARPT SUNNY     65  55  70 N6        30.03R
PIERRE         TSTM      62  61  96 E16G26    29.96S FOG
CUSTER         SUNNY     66  48  52 NE9       30.12R
ELLSWORTH AFB  SUNNY     64  54  71 N6        30.03R
PHILIP         CLOUDY    60  60 100 E9        29.96F
PINE RIDGE     PTSUNNY   71  68  90 N7        30.00R
SPEARFISH      FAIR      68  48  49 NW8       30.11R
WINNER         CLOUDY    65  62  90 E8        29.96F
$$

SDZ004>011-016>023-039-040-211500-
NORTHEAST SOUTH DAKOTA

CITY           SKY/WX    TMP DP  RH WIND       PRES   REMARKS
ABERDEEN       HVY RAIN  60  58  92 S21       29.95F FOG
WATERTOWN      TSTM      64  64 100 E5        30.00F
BROOKINGS      CLOUDY    67  63  87 N6        30.00R
SISSETON         N/A     60  58  92 S10G20    29.97F
$$

SDZ017-020-022-023-036>040-048>070-211500-
SOUTHEAST SOUTH DAKOTA

CITY           SKY/WX    TMP DP  RH WIND       PRES   REMARKS
SIOUX FALLS    CLOUDY    69  67  93 S6        29.97F
HURON          CLOUDY    64  61  90 N14       30.01R
CHAMBERLAIN    CLOUDY    67  67 100 E13       29.96F
MITCHELL       SUNNY     71  67  87 SE7       29.96F
YANKTON        PTSUNNY   72  63  73 SE10      29.96F
$$

ABBREVIATIONS USED IN REMARKS
   TC - TEMPERATURE IN CELSIUS
  WCI - WIND CHILL INDEX
   HX - HEAT INDEX
  VSB - VISIBILITY





USA.gov is the U.S. government's official web portal to all federal, state and local government web resources and services.